Back to catalog

IRIDIUM 125

AliveCommunicationsPO
NORAD 42964·PAYLOAD·🇺🇸 United States

Launched Oct 9, 2017 from Vandenberg Space Force Base

Loading…

Next Passes (next 24 hours)

TLE

FreshSource: CelesTrak SupGP

Epoch: Sep 14, 2026, 08:26 UTC

1 42964C 17061K   26257.35173611 -.00005192  00000+0 -18563-2 0  2579
2 42964  86.4033 348.1255 0002656  91.4271 320.9857 14.34223435    18

Track IRIDIUM 125 in real time with AllMySat

Download on the App Store